Location: Unspecified
(40.9447°N, 78.9903°W)
Time: 09:18:24
(UTC-04:00)

Resurs 1-4 Rocket - Pass Details

Date: 29 July 2021
Orbit: 799 x 814 km, 98.6° (Epoch: 27 September)

Event Time Altitude Azimuth Distance (km) Brightness Sun altitude
Rises 02:56:27 0° 12° (NNE) 3,340 6.5 -26.5°
Reaches altitude 10° 02:58:48 10° 12° (NNE) 2,403 5.5 -26.3°
Maximum altitude 03:04:07 83° 286° (WNW) 819 2.0 -25.9°
Enters shadow 03:04:28 77° 230° (SW) 831 1.9 -25.9°
